sat.trackr.live / text

‹ back to catalog

STARLINK-32777

NORAD 62525 · 2025-004Q

PAYLOAD ACTIVE UNKNOWN

§ Identity

Operator
Country
US
Launch date
2025-01-08
Launch site
AFETR
Launch vehicle
Mass (kg)
RCS (m²)

Purposes: comms

External: N2YO · Heavens-Above · Gunter

§ Orbital elements

Epoch: 2026-05-25T01:19:04.155744Z

Period
94.27 min
Inclination
42.9976°
Eccentricity
0.0000576
Mean motion
15.27597886 rev/d
Perigee alt
482.6 km
Apogee alt
483.4 km
Semi-major
6,861.1 km
B*
8.1890e-4
RAAN
148.9523°
Arg perigee
320.9860°
Mean anomaly
39.0950°
Rev number
7,813

§ Raw data

STARLINK-327771 62525U 25004Q   26145.05490921  .00022353  00000+0  81890-3 0  99922 62525  42.9976 148.9523 0000576 320.9860  39.0950 15.27597886 78130

JSON: /api/v1/satellites/62525 · /tle

For live sub-satellite position, see the globe view (requires WebGL).

§ Visibility from observer

Set your observer location to see the next 7 days of passes ≥ 10°. The values pass through the URL so the page stays shareable.

No JS? Fill the form by hand. The geolocation button needs JavaScript.